Airfield :
LOGIN :

Register | Disclaimer

   EN    FR    IT 

 










Legend :    VFR   Marginal VFR   IFR   Intensive IFR   Very Intensive IFR
Visi :
Ceiling :
>= 8 km
>= 3000ft
5 to 8 km
1000 to 3000 ft
1500m to 5 km
500 to 1000 ft
800 to 1500m
200 to 500 ft
< 800m
< 200 ft
Symbols :   Thunderstorms  Fog  Heavy snow  Heavy precipitations  Wind > 20 kt
SIGMETs :     Misc.  Thunderstorms  Icing  Turbulence  Mountain Waves  Volcanic Ashes







- Airport Elevation : 79 ft
- IATA code : NSY


LICZ - Sigonella (Mil) Catania

CURRENT METAR :
  • 240155Z 27006KT CAVOK 06/06 Q1022 RMK SKC VIS MIN 9999 WIND THR28 27007KT WIND THR10 28005KT A3018 BLU

EXPIRED METARs :
  • 240055Z 28006KT CAVOK 07/07 Q1022 RMK SKC VIS MIN 9999 WIND THR28 27005KT WIND THR10 30006KT A3019 BLU
  • 232355Z 28006KT CAVOK 09/09 Q1022 RMK SKC VIS MIN 9999 WIND THR28 28006KT WIND THR10 28005KT A3019 BLU

TAF TAF LICZ
Valid from the 24 at 00:00 until the 24 at 09:00 UTC


232300Z 2400/2409 27005KT CAVOK
No reported NOTAMs for that airfield.



MET'MAP, your aeronautical weather chart ! - Copyright ORBIFLY December 2007 - Disclaimer

ORBIFLY MET'MAP TEAM :

Programming & Development : Alexandra Zaïnal
Concept & Development : Baudouin d'Aumeries
Co-Development & Prog : Marc-Olivier Méhu
Technical & hardware support : Manuel Goepfert

Contact : metmap@orbifly.com




SOURCES & CREDITS :

   NOAA